Location: Batang Balui
(2.7000°N, 113.7833°E)
Time: 22:49:25
(UTC+00:00)

Cosmos 1633 Rocket - Pass Details

Date: 03 December 2021
Orbit: 608 x 622 km, 82.5° (Epoch: 27 January)

Event Time Altitude Azimuth Distance (km) Brightness Sun altitude
Rises 10:56:35 0° 6° (N) 2,872 6.2 -10.7°
Reaches altitude 10° 10:58:51 10° 12° (NNE) 1,972 5.3 -11.2°
Maximum altitude 11:03:04 48° 86° (E) 812 3.3 -12.2°
Drops below altitude 10° 11:07:18 10° 161° (SSE) 1,986 5.7 -13.2°
Sets 11:09:36 0° 166° (SSE) 2,895 6.6 -13.7°
